sat.trackr.live / text

‹ back to catalog

TIANYI D

NORAD 64051 · 2025-103D

PAYLOAD ACTIVE UNKNOWN

§ Identity

Operator
Country
PRC
Launch date
2025-05-17
Launch site
JSC
Launch vehicle
Mass (kg)
RCS (m²)

External: N2YO · Heavens-Above · Gunter

§ Orbital elements

Epoch: 2026-05-25T04:29:52.368288Z

Period
94.85 min
Inclination
97.3830°
Eccentricity
0.0000623
Mean motion
15.18210013 rev/d
Perigee alt
510.8 km
Apogee alt
511.7 km
Semi-major
6,889.4 km
B*
1.6564e-4
RAAN
216.9619°
Arg perigee
289.7014°
Mean anomaly
70.4153°
Rev number
5,651

§ Raw data

TIANYI D1 64051U 25103D   26145.18741167  .00003321  00000+0  16564-3 0  99932 64051  97.3830 216.9619 0000623 289.7014  70.4153 15.18210013 56513

JSON: /api/v1/satellites/64051 · /tle

For live sub-satellite position, see the globe view (requires WebGL).

§ Visibility from observer

Set your observer location to see the next 7 days of passes ≥ 10°. The values pass through the URL so the page stays shareable.

No JS? Fill the form by hand. The geolocation button needs JavaScript.

§ Radio — SatNOGS DB

ModeDescriptionDownlinkUplink
FM Telemetry 401.402 MHz

1 transmitter · refreshed weekly from db.satnogs.org